VOZ1495 YBBN-YBHM

Flight info

Callsign VOZ1495
Flight time 1h 29m
Altitude 38000
Route BIXAD Q67 GUDSO DCT OVRON
Aircraft B737/M-SDE2E3FGHIRWXY/LB1

Departure

Time 2026-05-05 17:49
Airport Brisbane International Airport (YBBN)

Arrival

Time 2026-05-05 19:19
Airport Hamilton Island Airport (YBHM)
Time Latitude Longitude Altitude Speed Heading
2026-05-05 16:52 -27.38807 153.12003 20 ft 0 kts 279°
2026-05-05 17:38 -27.38807 153.12007 20 ft 3 kts 279°
2026-05-05 17:38 -27.38811 153.12036 22 ft 4 kts 279°
2026-05-05 17:38 -27.38816 153.12066 20 ft 4 kts 279°
2026-05-05 17:39 -27.38820 153.12094 21 ft 4 kts 250°
2026-05-05 17:39 -27.38811 153.12104 23 ft 4 kts 151°
2026-05-05 17:39 -27.38795 153.12090 20 ft 3 kts 139°
2026-05-05 17:39 -27.38792 153.12087 20 ft 0 kts 139°
2026-05-05 17:43 -27.38800 153.12094 22 ft 4 kts 141°
2026-05-05 17:44 -27.38825 153.12130 20 ft 7 kts 107°
2026-05-05 17:44 -27.38810 153.12175 22 ft 6 kts 41°
2026-05-05 17:44 -27.38787 153.12218 20 ft 7 kts 96°
2026-05-05 17:44 -27.38795 153.12273 20 ft 8 kts 85°
2026-05-05 17:45 -27.38757 153.12327 21 ft 11 kts 29°
2026-05-05 17:45 -27.38690 153.12365 20 ft 11 kts 28°
2026-05-05 17:45 -27.38625 153.12403 21 ft 10 kts 27°
2026-05-05 17:45 -27.38559 153.12441 20 ft 12 kts 27°
2026-05-05 17:46 -27.38480 153.12486 20 ft 14 kts 26°
2026-05-05 17:46 -27.38385 153.12540 20 ft 17 kts 27°
2026-05-05 17:46 -27.38275 153.12603 23 ft 19 kts 27°
2026-05-05 17:46 -27.38157 153.12669 22 ft 19 kts 26°
2026-05-05 17:47 -27.38047 153.12733 20 ft 16 kts 27°
2026-05-05 17:47 -27.37996 153.12815 22 ft 14 kts 98°
2026-05-05 17:47 -27.38033 153.12907 20 ft 13 kts 117°
2026-05-05 17:47 -27.38075 153.12995 21 ft 12 kts 118°
2026-05-05 17:48 -27.38129 153.13047 21 ft 11 kts 179°
2026-05-05 17:48 -27.38196 153.13016 21 ft 10 kts 208°
2026-05-05 17:48 -27.38267 153.12974 22 ft 20 kts 207°
2026-05-05 17:48 -27.38610 153.12777 21 ft 90 kts 207°
2026-05-05 17:49 -27.39348 153.12353 30 ft 145 kts 207°
2026-05-05 17:49 -27.40311 153.11810 378 ft 163 kts 206°
2026-05-05 17:49 -27.41304 153.11246 1057 ft 162 kts 207°
2026-05-05 17:49 -27.42315 153.10640 1656 ft 170 kts 205°
2026-05-05 17:50 -27.43411 153.10028 2137 ft 186 kts 203°
2026-05-05 17:50 -27.44652 153.09322 2376 ft 213 kts 205°
2026-05-05 17:50 -27.46041 153.08519 2616 ft 235 kts 205°
2026-05-05 17:50 -27.47520 153.07590 3020 ft 251 kts 216°
2026-05-05 17:51 -27.48578 153.06004 3737 ft 260 kts 248°
2026-05-05 17:51 -27.48861 153.04006 4639 ft 261 kts 270°
2026-05-05 17:51 -27.48721 153.01965 5492 ft 263 kts 275°
2026-05-05 17:51 -27.48518 152.99896 6286 ft 268 kts 275°
2026-05-05 17:52 -27.48322 152.97794 7112 ft 271 kts 275°
2026-05-05 17:52 -27.48139 152.95684 7975 ft 273 kts 275°
2026-05-05 17:52 -27.47877 152.93547 8750 ft 282 kts 288°
2026-05-05 17:52 -27.46775 152.91721 9456 ft 290 kts 322°
2026-05-05 17:53 -27.44944 152.90795 10344 ft 292 kts 349°
2026-05-05 17:53 -27.42856 152.90702 10745 ft 315 kts
2026-05-05 17:53 -27.40593 152.91018 10939 ft 341 kts
2026-05-05 17:53 -27.38178 152.91462 11352 ft 357 kts
2026-05-05 17:54 -27.35704 152.91941 12062 ft 364 kts
2026-05-05 17:54 -27.33196 152.92420 12855 ft 367 kts
2026-05-05 17:54 -27.30660 152.92890 13633 ft 371 kts
2026-05-05 17:54 -27.28110 152.93350 14459 ft 371 kts
2026-05-05 17:55 -27.25563 152.93800 15317 ft 371 kts
2026-05-05 17:55 -27.23012 152.94244 16197 ft 370 kts
2026-05-05 17:55 -27.20470 152.94683 17043 ft 370 kts
2026-05-05 17:55 -27.17921 152.95120 17856 ft 371 kts
2026-05-05 17:56 -27.15363 152.95557 18619 ft 372 kts
2026-05-05 17:56 -27.12795 152.95995 19246 ft 375 kts
2026-05-05 17:56 -27.10199 152.96436 19811 ft 380 kts
2026-05-05 17:56 -27.07608 152.96876 20377 ft 384 kts
2026-05-05 17:57 -27.04953 152.97328 20943 ft 387 kts
2026-05-05 17:57 -27.02285 152.97782 21520 ft 390 kts
2026-05-05 17:57 -26.99593 152.98241 22078 ft 394 kts
2026-05-05 17:57 -26.96869 152.98704 22615 ft 397 kts
2026-05-05 17:58 -26.94119 152.99172 23134 ft 401 kts 360°
2026-05-05 17:58 -26.91352 152.99643 23660 ft 404 kts 359°
2026-05-05 17:58 -26.88560 153.00118 24077 ft 407 kts 359°
2026-05-05 17:58 -26.85744 153.00598 24533 ft 409 kts 359°
2026-05-05 17:59 -26.82923 153.01078 24994 ft 411 kts 359°
2026-05-05 17:59 -26.80085 153.01561 25448 ft 413 kts 359°
2026-05-05 17:59 -26.77237 153.02046 25877 ft 415 kts 359°
2026-05-05 17:59 -26.74368 153.02542 26317 ft 418 kts 359°
2026-05-05 18:00 -26.71488 153.03052 26753 ft 420 kts 360°
2026-05-05 18:00 -26.68600 153.03559 27162 ft 422 kts 359°
2026-05-05 18:00 -26.65693 153.04061 27558 ft 424 kts 359°
2026-05-05 18:00 -26.62773 153.04557 27948 ft 426 kts 359°
2026-05-05 18:01 -26.59837 153.05052 28336 ft 428 kts 359°
2026-05-05 18:01 -26.56882 153.05548 28704 ft 430 kts 359°
2026-05-05 18:01 -26.53916 153.06044 29062 ft 432 kts 359°
2026-05-05 18:01 -26.50932 153.06543 29389 ft 434 kts 360°
2026-05-05 18:02 -26.47945 153.07044 29823 ft 434 kts 360°
2026-05-05 18:02 -26.44961 153.07546 30365 ft 431 kts 360°
2026-05-05 18:02 -26.41999 153.08045 30850 ft 429 kts 359°
2026-05-05 18:02 -26.39047 153.08538 31212 ft 430 kts 359°
2026-05-05 18:03 -26.36080 153.09031 31529 ft 432 kts 359°
2026-05-05 18:03 -26.33105 153.09525 31908 ft 432 kts 358°
2026-05-05 18:03 -26.30162 153.09661 32287 ft 416 kts 345°
2026-05-05 18:03 -26.27369 153.09067 32698 ft 404 kts 336°
2026-05-05 18:04 -26.24763 153.08005 32993 ft 397 kts 327°
2026-05-05 18:04 -26.20107 153.04723 33395 ft 397 kts 320°
2026-05-05 18:04 -26.17826 153.03011 33877 ft 394 kts 320°
2026-05-05 18:05 -26.15566 153.01320 34336 ft 390 kts 319°
2026-05-05 18:05 -26.13325 152.99652 34786 ft 385 kts 319°
2026-05-05 18:05 -26.11106 152.98006 35199 ft 382 kts 319°
2026-05-05 18:05 -26.08900 152.96372 35536 ft 380 kts 319°
2026-05-05 18:06 -26.06699 152.94746 35851 ft 379 kts 319°
2026-05-05 18:06 -26.05959 152.94200 35972 ft 378 kts 319°
2026-05-05 18:06 -26.02345 152.91536 36563 ft 374 kts 319°
2026-05-05 18:06 -26.00178 152.89941 36864 ft 372 kts 319°
2026-05-05 18:07 -25.98028 152.88358 37163 ft 370 kts 319°
2026-05-05 18:07 -25.95881 152.86780 37460 ft 369 kts 319°
2026-05-05 18:07 -25.93745 152.85209 37726 ft 367 kts 319°
2026-05-05 18:07 -25.91616 152.83645 37991 ft 367 kts 319°
2026-05-05 18:08 -25.89481 152.82075 38028 ft 370 kts 319°
2026-05-05 18:08 -25.85220 152.78946 38049 ft 368 kts 319°
2026-05-05 18:09 -25.80976 152.75837 38052 ft 364 kts 319°
2026-05-05 18:09 -25.76726 152.72720 38068 ft 370 kts 319°
2026-05-05 18:10 -25.72382 152.69532 38065 ft 378 kts 319°
2026-05-05 18:10 -25.67975 152.66310 38054 ft 380 kts 319°
2026-05-05 18:11 -25.63556 152.63084 38057 ft 381 kts 319°
2026-05-05 18:11 -25.59135 152.59859 38053 ft 380 kts 320°
2026-05-05 18:12 -25.54718 152.56639 38052 ft 380 kts 320°
2026-05-05 18:12 -25.50293 152.53415 38050 ft 380 kts 320°
2026-05-05 18:13 -25.45875 152.50198 38057 ft 380 kts 319°
2026-05-05 18:13 -25.41457 152.46985 38053 ft 380 kts 320°
2026-05-05 18:14 -25.37042 152.43776 38053 ft 380 kts 320°
2026-05-05 18:14 -25.33370 152.41110 38054 ft 380 kts 320°
2026-05-05 18:15 -25.28960 152.37910 38051 ft 379 kts 320°
2026-05-05 18:15 -25.24545 152.34710 38049 ft 380 kts 320°
2026-05-05 18:16 -25.20127 152.31509 38060 ft 380 kts 320°
2026-05-05 18:16 -25.15698 152.28304 38057 ft 381 kts 320°
2026-05-05 18:17 -25.11272 152.25104 38052 ft 381 kts 320°
2026-05-05 18:17 -25.06835 152.21899 38055 ft 381 kts 320°
2026-05-05 18:18 -25.02394 152.18694 38053 ft 381 kts 320°
2026-05-05 18:18 -24.97952 152.15490 38057 ft 382 kts 320°
2026-05-05 18:19 -24.93509 152.12289 38051 ft 381 kts 320°
2026-05-05 18:19 -24.89068 152.09092 38051 ft 382 kts 320°
2026-05-05 18:20 -24.84623 152.05896 38049 ft 382 kts 320°
2026-05-05 18:20 -24.80175 152.02699 38050 ft 381 kts 320°
2026-05-05 18:21 -24.75734 151.99511 38050 ft 381 kts 320°
2026-05-05 18:21 -24.71290 151.96323 38042 ft 381 kts 320°
2026-05-05 18:22 -24.66840 151.93133 38037 ft 382 kts 320°
2026-05-05 18:22 -24.62392 151.89948 38033 ft 381 kts 320°
2026-05-05 18:23 -24.57946 151.86767 38042 ft 382 kts 320°
2026-05-05 18:23 -24.53524 151.83606 38044 ft 382 kts 320°
2026-05-05 18:24 -24.49064 151.80419 38044 ft 383 kts 320°
2026-05-05 18:24 -24.44594 151.77229 38047 ft 384 kts 320°
2026-05-05 18:25 -24.40112 151.74034 38043 ft 384 kts 320°
2026-05-05 18:25 -24.35630 151.70841 38045 ft 384 kts 320°
2026-05-05 18:26 -24.31143 151.67647 38019 ft 385 kts 320°
2026-05-05 18:26 -24.26649 151.64451 38033 ft 386 kts 320°
2026-05-05 18:27 -24.22148 151.61253 38054 ft 386 kts 320°
2026-05-05 18:27 -24.17640 151.58052 38045 ft 386 kts 320°
2026-05-05 18:28 -24.10901 151.53274 38037 ft 384 kts 320°
2026-05-05 18:28 -24.06425 151.50103 38027 ft 383 kts 320°
2026-05-05 18:29 -24.01986 151.46960 38029 ft 383 kts 320°
2026-05-05 18:29 -23.97514 151.43797 38016 ft 382 kts 320°
2026-05-05 18:30 -23.93045 151.40638 38028 ft 383 kts 320°
2026-05-05 18:30 -23.88567 151.37475 38018 ft 384 kts 320°
2026-05-05 18:31 -23.84068 151.34300 38027 ft 386 kts 320°
2026-05-05 18:31 -23.79551 151.31116 38031 ft 387 kts 320°
2026-05-05 18:32 -23.75024 151.27928 38029 ft 388 kts 320°
2026-05-05 18:32 -23.70487 151.24735 38029 ft 389 kts 320°
2026-05-05 18:33 -23.65939 151.21537 38001 ft 389 kts 320°
2026-05-05 18:33 -23.61389 151.18341 38020 ft 389 kts 320°
2026-05-05 18:34 -23.56832 151.15142 38028 ft 390 kts 320°
2026-05-05 18:34 -23.52266 151.11939 38025 ft 390 kts 320°
2026-05-05 18:35 -23.47696 151.08737 38028 ft 390 kts 320°
2026-05-05 18:35 -23.43134 151.05543 38023 ft 390 kts 320°
2026-05-05 18:36 -23.38558 151.02342 38028 ft 390 kts 320°
2026-05-05 18:36 -23.33991 150.99150 38024 ft 390 kts 320°
2026-05-05 18:37 -23.29425 150.95960 38015 ft 390 kts 320°
2026-05-05 18:37 -23.24863 150.92776 38024 ft 390 kts 320°
2026-05-05 18:38 -23.20293 150.89589 38022 ft 390 kts 320°
2026-05-05 18:38 -23.15719 150.86402 38021 ft 391 kts 320°
2026-05-05 18:39 -23.11137 150.83213 38022 ft 391 kts 320°
2026-05-05 18:39 -23.06591 150.80050 38018 ft 391 kts 320°
2026-05-05 18:40 -23.02003 150.76862 38018 ft 391 kts 320°
2026-05-05 18:40 -22.97390 150.73659 38012 ft 391 kts 320°
2026-05-05 18:41 -22.92833 150.70497 38026 ft 391 kts 321°
2026-05-05 18:41 -22.88240 150.67312 38015 ft 393 kts 321°
2026-05-05 18:42 -22.83633 150.64119 38016 ft 393 kts 321°
2026-05-05 18:42 -22.79021 150.60928 38018 ft 393 kts 321°
2026-05-05 18:43 -22.74413 150.57741 38020 ft 393 kts 321°
2026-05-05 18:43 -22.69796 150.54551 38020 ft 393 kts 321°
2026-05-05 18:44 -22.65181 150.51364 38012 ft 393 kts 321°
2026-05-05 18:44 -22.60566 150.48180 38014 ft 394 kts 321°
2026-05-05 18:45 -22.55947 150.44995 38011 ft 394 kts 321°
2026-05-05 18:45 -22.51317 150.41806 38015 ft 394 kts 321°
2026-05-05 18:46 -22.46691 150.38623 38013 ft 394 kts 321°
2026-05-05 18:46 -22.42057 150.35435 38014 ft 395 kts 321°
2026-05-05 18:47 -22.37424 150.32252 38011 ft 395 kts 321°
2026-05-05 18:47 -22.32790 150.29070 38006 ft 394 kts 321°
2026-05-05 18:48 -22.28156 150.25891 38004 ft 395 kts 321°
2026-05-05 18:48 -22.23522 150.22714 38004 ft 395 kts 321°
2026-05-05 18:49 -22.18882 150.19535 38006 ft 395 kts 321°
2026-05-05 18:49 -22.14236 150.16356 37996 ft 396 kts 321°
2026-05-05 18:50 -22.09584 150.13174 38006 ft 396 kts 321°
2026-05-05 18:50 -22.04932 150.09995 38008 ft 396 kts 321°
2026-05-05 18:51 -22.00271 150.06812 37983 ft 397 kts 321°
2026-05-05 18:51 -21.95608 150.03632 38004 ft 397 kts 321°
2026-05-05 18:52 -21.90944 150.00451 38010 ft 397 kts 321°
2026-05-05 18:52 -21.86275 149.97271 38008 ft 397 kts 321°
2026-05-05 18:53 -21.81597 149.94087 38008 ft 398 kts 321°
2026-05-05 18:53 -21.76919 149.90906 38008 ft 398 kts 321°
2026-05-05 18:54 -21.72242 149.87727 38003 ft 398 kts 321°
2026-05-05 18:54 -21.67563 149.84550 37998 ft 398 kts 321°
2026-05-05 18:55 -21.65197 149.82940 37455 ft 406 kts 321°
2026-05-05 18:55 -21.62802 149.81313 36832 ft 408 kts 321°
2026-05-05 18:55 -21.60412 149.79693 36192 ft 406 kts 321°
2026-05-05 18:55 -21.58020 149.78072 35470 ft 407 kts 321°
2026-05-05 18:56 -21.55617 149.76444 34685 ft 410 kts 321°
2026-05-05 18:56 -21.53198 149.74805 33860 ft 413 kts 321°
2026-05-05 18:56 -21.50753 149.73148 32947 ft 416 kts 322°
2026-05-05 18:56 -21.48317 149.71501 32361 ft 411 kts 322°
2026-05-05 18:57 -21.45911 149.69877 31753 ft 407 kts 322°
2026-05-05 18:57 -21.43528 149.68269 31170 ft 402 kts 322°
2026-05-05 18:57 -21.41173 149.66679 30613 ft 398 kts 322°
2026-05-05 18:57 -21.38839 149.65103 30021 ft 395 kts 322°
2026-05-05 18:58 -21.36526 149.63540 29373 ft 391 kts 322°
2026-05-05 18:58 -21.34238 149.61996 28756 ft 386 kts 322°
2026-05-05 18:58 -21.31984 149.60475 28165 ft 381 kts 322°
2026-05-05 18:58 -21.29755 149.58971 27619 ft 376 kts 323°
2026-05-05 18:59 -21.27559 149.57490 27054 ft 372 kts 323°
2026-05-05 18:59 -21.25369 149.56012 26496 ft 369 kts 323°
2026-05-05 18:59 -21.23205 149.54553 25947 ft 365 kts 323°
2026-05-05 18:59 -21.21067 149.53112 25406 ft 362 kts 323°
2026-05-05 19:00 -21.18967 149.51697 24871 ft 359 kts 323°
2026-05-05 19:00 -21.16857 149.50275 24317 ft 358 kts 324°
2026-05-05 19:00 -21.14760 149.48863 23768 ft 356 kts 324°
2026-05-05 19:00 -21.12669 149.47455 23154 ft 354 kts 324°
2026-05-05 19:01 -21.10590 149.46057 22569 ft 351 kts 324°
2026-05-05 19:01 -21.08537 149.44676 22011 ft 348 kts 324°
2026-05-05 19:01 -21.06489 149.43300 21451 ft 345 kts 324°
2026-05-05 19:01 -21.04457 149.41935 20923 ft 343 kts 324°
2026-05-05 19:02 -21.03099 149.41023 20557 ft 341 kts 324°
2026-05-05 19:02 -21.01095 149.39677 20029 ft 339 kts 325°
2026-05-05 19:02 -20.99134 149.38360 19521 ft 337 kts 325°
2026-05-05 19:02 -20.97153 149.37030 18986 ft 336 kts 325°
2026-05-05 19:03 -20.95176 149.35703 18457 ft 335 kts 325°
2026-05-05 19:03 -20.93205 149.34381 17879 ft 334 kts 325°
2026-05-05 19:03 -20.91248 149.33068 17334 ft 332 kts 325°
2026-05-05 19:03 -20.89290 149.31756 16793 ft 330 kts 326°
2026-05-05 19:04 -20.87354 149.30459 16270 ft 328 kts 326°
2026-05-05 19:04 -20.85426 149.29167 15751 ft 326 kts 326°
2026-05-05 19:04 -20.83512 149.27885 15241 ft 324 kts 326°
2026-05-05 19:04 -20.81602 149.26606 14727 ft 323 kts 326°
2026-05-05 19:05 -20.79703 149.25335 14193 ft 323 kts 327°
2026-05-05 19:05 -20.77801 149.24062 13662 ft 322 kts 327°
2026-05-05 19:05 -20.75902 149.22791 13100 ft 321 kts 327°
2026-05-05 19:05 -20.74011 149.21527 12570 ft 320 kts 327°
2026-05-05 19:06 -20.72131 149.20270 12058 ft 318 kts 328°
2026-05-05 19:06 -20.70262 149.19022 11556 ft 316 kts 328°
2026-05-05 19:06 -20.68399 149.17777 11054 ft 316 kts 328°
2026-05-05 19:06 -20.66536 149.16532 10573 ft 316 kts 329°
2026-05-05 19:07 -20.64706 149.15310 10380 ft 306 kts 328°
2026-05-05 19:07 -20.62934 149.14127 10239 ft 295 kts 329°
2026-05-05 19:07 -20.61225 149.12986 10094 ft 285 kts 329°
2026-05-05 19:07 -20.59564 149.11878 9902 ft 278 kts 329°
2026-05-05 19:08 -20.57927 149.10787 9533 ft 277 kts 329°
2026-05-05 19:08 -20.56298 149.09702 9178 ft 275 kts 330°
2026-05-05 19:08 -20.54680 149.08625 8839 ft 274 kts 329°
2026-05-05 19:08 -20.53066 149.07550 8494 ft 273 kts 329°
2026-05-05 19:09 -20.51464 149.06483 8159 ft 272 kts 330°
2026-05-05 19:09 -20.49852 149.05410 7819 ft 273 kts 330°
2026-05-05 19:09 -20.48245 149.04341 7489 ft 272 kts 330°
2026-05-05 19:09 -20.46641 149.03273 7162 ft 272 kts 330°
2026-05-05 19:10 -20.45038 149.02206 6844 ft 271 kts 330°
2026-05-05 19:10 -20.43439 149.01142 6516 ft 272 kts 330°
2026-05-05 19:10 -20.41823 149.00068 6153 ft 275 kts 330°
2026-05-05 19:10 -20.40199 148.98988 5808 ft 276 kts 330°
2026-05-05 19:11 -20.38569 148.97904 5537 ft 275 kts 330°
2026-05-05 19:11 -20.36970 148.96839 5410 ft 267 kts 330°
2026-05-05 19:11 -20.35348 148.95973 5233 ft 256 kts 351°
2026-05-05 19:11 -20.33643 148.95926 5158 ft 238 kts 12°
2026-05-05 19:12 -20.32061 148.96274 5050 ft 227 kts 18°
2026-05-05 19:12 -20.30565 148.96662 4903 ft 217 kts 18°
2026-05-05 19:12 -20.29134 148.97030 4700 ft 207 kts 19°
2026-05-05 19:12 -20.27758 148.97376 4450 ft 198 kts 18°
2026-05-05 19:13 -20.26420 148.97680 4241 ft 197 kts 11°
2026-05-05 19:13 -20.25031 148.97534 4048 ft 206 kts 344°
2026-05-05 19:13 -20.23763 148.96781 3834 ft 213 kts 321°
2026-05-05 19:13 -20.22796 148.95590 3599 ft 213 kts 300°
2026-05-05 19:14 -20.22223 148.94151 3275 ft 210 kts 281°
2026-05-05 19:14 -20.22128 148.92666 3064 ft 197 kts 259°
2026-05-05 19:14 -20.22503 148.91307 2816 ft 187 kts 237°
2026-05-05 19:14 -20.23229 148.90215 2577 ft 176 kts 218°
2026-05-05 19:15 -20.24157 148.89446 2380 ft 163 kts 202°
2026-05-05 19:15 -20.25170 148.88974 2196 ft 156 kts 189°
2026-05-05 19:15 -20.26222 148.88784 2031 ft 152 kts 176°
2026-05-05 19:15 -20.27251 148.88875 1867 ft 146 kts 163°
2026-05-05 19:16 -20.28188 148.89214 1697 ft 137 kts 152°
2026-05-05 19:16 -20.28969 148.89721 1488 ft 126 kts 143°
2026-05-05 19:16 -20.29645 148.90259 1304 ft 120 kts 142°
2026-05-05 19:16 -20.30306 148.90791 1175 ft 120 kts 141°
2026-05-05 19:17 -20.30983 148.91335 1010 ft 124 kts 141°
2026-05-05 19:17 -20.31675 148.91892 869 ft 127 kts 141°
2026-05-05 19:17 -20.32372 148.92470 697 ft 126 kts 142°
2026-05-05 19:17 -20.33051 148.93034 513 ft 123 kts 143°
2026-05-05 19:18 -20.33736 148.93587 403 ft 124 kts 144°
2026-05-05 19:18 -20.34437 148.94127 244 ft 124 kts 144°
2026-05-05 19:18 -20.35127 148.94667 42 ft 122 kts 143°
2026-05-05 19:18 -20.35717 148.95141 22 ft 81 kts 143°
2026-05-05 19:19 -20.35997 148.95364 19 ft 28 kts 143°
2026-05-05 19:19 -20.36145 148.95484 20 ft 26 kts 143°
2026-05-05 19:19 -20.36278 148.95591 21 ft 16 kts 143°
2026-05-05 19:19 -20.36355 148.95637 22 ft 9 kts 176°
2026-05-05 19:20 -20.36390 148.95669 21 ft 8 kts 62°
2026-05-05 19:20 -20.36345 148.95649 22 ft 8 kts 318°
2026-05-05 19:20 -20.36304 148.95611 23 ft 9 kts 321°
2026-05-05 19:20 -20.36244 148.95563 20 ft 13 kts 323°
2026-05-05 19:21 -20.36165 148.95500 20 ft 14 kts 323°
2026-05-05 19:21 -20.36085 148.95437 20 ft 15 kts 323°
2026-05-05 19:21 -20.35992 148.95361 19 ft 19 kts 322°
2026-05-05 19:21 -20.35881 148.95271 23 ft 21 kts 323°
2026-05-05 19:22 -20.35756 148.95171 22 ft 24 kts 322°
2026-05-05 19:22 -20.35624 148.95066 22 ft 24 kts 323°
2026-05-05 19:22 -20.35494 148.94964 22 ft 20 kts 324°
2026-05-05 19:22 -20.35396 148.94885 21 ft 18 kts 321°
2026-05-05 19:23 -20.35309 148.94814 20 ft 10 kts 331°
2026-05-05 19:23 -20.35246 148.94834 20 ft 7 kts 51°
2026-05-05 19:23 -20.35236 148.94848 20 ft 3 kts 52°
2026-05-05 19:23 -20.35216 148.94883 19 ft 6 kts 74°
2026-05-05 19:24 -20.35221 148.94922 19 ft 7 kts 105°
2026-05-05 19:24 -20.35241 148.94952 20 ft 4 kts 149°
2026-05-05 19:24 -20.35255 148.94980 20 ft 5 kts 103°
2026-05-05 19:24 -20.35278 148.94988 20 ft 3 kts 220°
2026-05-05 19:25 -20.35267 148.94967 20 ft 4 kts 319°
2026-05-05 19:25 -20.35245 148.94950 19 ft 4 kts 323°
2026-05-05 19:25 -20.35232 148.94927 21 ft 4 kts 270°
2026-05-05 19:25 -20.35234 148.94919 21 ft 1 kts 252°
2026-05-05 19:26 -20.35235 148.94916 19 ft 0 kts 249°